Theta_e
298 298 297 296 294 294 295 295 295 297 297 295 292 291 288 287 286 287 288 289 289 290 289 289 289 290 289 289 292 292 292 293 294 295 297 300 302 302 302 302 301 301 301
296 296 295 294 293 293 294 294 295 295 297 296 296 294 290 288 286 287 287 288 289 289 289 288 288 288 288 288 288 290 290 290 292 291 293 292 297 299 299 299 298 297 298
295 295 295 293 291 292 292 293 293 294 295 296 294 291 289 288 286 285 285 286 288 289 288 287 287 287 287 286 286 287 289 288 289 291 291 289 288 291 300 295 295 293 294
296 296 295 293 292 291 291 292 292 292 293 295 293 291 290 287 287 284 285 285 286 287 287 287 286 286 286 285 286 287 286 288 286 288 291 293 295 289 288 296 295 293 292
295 295 295 295 293 292 290 290 290 290 290 290 293 292 289 287 284 284 283 283 284 286 286 286 285 285 285 285 285 285 285 286 285 286 286 286 292 294 291 287 291 291 292
294 295 294 294 292 291 290 288 288 287 287 287 287 288 286 284 283 282 282 282 283 284 284 285 284 284 284 283 284 284 284 284 284 284 284 285 284 284 285 285 286 284 290
294 293 292 292 291 290 288 287 287 286 285 285 285 285 284 284 283 281 281 282 281 282 282 283 283 283 283 283 283 283 282 283 283 282 283 284 285 286 285 284 282 282 286
289 289 292 292 292 289 288 288 286 285 285 285 285 284 284 284 284 283 281 282 282 279 282 282 282 282 283 283 282 282 281 280 282 281 282 282 283 284 285 284 282 280 282
283 284 285 288 290 289 289 288 287 286 285 285 284 284 284 283 283 282 282 282 282 284 282 284 282 282 284 283 282 281 280 279 280 280 281 281 282 282 283 284 284 281 277
283 283 284 284 285 286 287 287 288 286 286 285 284 283 283 283 281 281 282 282 283 284 284 284 283 284 284 282 281 280 281 280 280 280 279 279 280 280 281 282 282 282 280
282 281 283 283 284 284 285 284 283 283 283 284 283 282 281 281 282 283 283 284 284 284 283 283 281 281 281 281 280 279 280 280 280 279 279 279 279 278 279 280 280 281 280
283 283 283 283 283 283 283 283 284 284 284 284 283 283 283 284 284 284 285 284 282 283 282 282 283 282 282 281 280 280 279 279 279 280 279 278 281 278 278 279 279 279 279
281 281 281 280 280 281 281 282 283 284 284 284 283 283 282 282 281 282 284 284 285 284 283 282 281 281 281 281 280 280 279 279 279 280 279 279 278 278 278 278 278 279 281
281 280 279 279 279 280 280 280 281 282 283 283 283 283 283 283 282 283 284 284 284 283 282 281 281 281 280 280 280 280 279 278 279 281 280 279 278 278 278 279 279 280 280
279 279 278 278 278 278 278 278 278 279 281 281 281 282 283 283 283 283 284 284 282 283 282 281 281 281 280 280 279 280 279 279 278 280 281 282 282 284 282 279 277 278 278
277 277 277 277 277 277 277 277 277 278 279 279 280 281 281 282 282 282 281 282 281 281 280 279 280 280 281 283 285 284 282 280 279 278 278 279 282 283 286 287 287 281 278
276 276 276 276 276 276 276 276 276 277 276 277 278 278 278 278 279 280 280 280 280 280 280 279 280 279 279 283 284 285 283 282 279 279 279 279 280 282 280 283 285 285 287
275 276 275 275 276 275 274 274 275 275 275 275 275 276 276 276 277 276 276 276 277 277 277 277 277 277 278 282 284 284 282 281 280 279 277 277 276 277 279 279 278 278 278
275 276 275 274 273 273 272 272 273 274 273 273 274 275 275 274 274 274 273 274 274 274 274 276 275 274 274 280 282 282 279 278 277 278 277 276 275 279 282 279 278 277 278
274 273 272 273 271 271 270 269 269 271 270 272 272 274 273 273 271 271 271 272 272 274 275 276 274 276 274 278 280 280 277 276 277 276 276 281 279 281 283 278 278 277 277
272 273 271 268 269 270 269 268 267 267 271 271 271 271 271 271 270 270 270 270 270 271 269 271 270 270 271 271 278 280 277 277 276 276 276 277 281 282 282 283 279 278 279
270 268 267 267 267 267 266 267 267 270 270 270 269 269 268 269 271 270 270 270 268 267 267 267 268 270 271 275 277 279 280 280 277 276 277 277 281 282 282 282 283 285 284
269 269 267 267 267 268 268 267 268 268 268 267 267 267 267 269 270 269 269 269 267 265 266 267 268 269 272 272 277 278 280 280 278 279 280 281 282 282 281 283 283 284 281
267 267 265 265 265 266 268 266 266 267 266 265 265 266 266 267 267 268 268 268 264 264 266 267 267 268 270 271 272 273 273 277 277 278 277 278 280 282 281 280 280 281 280
266 266 265 265 265 265 264 264 267 265 265 265 265 265 266 265 265 267 266 267 268 268 268 268 269 268 268 271 275 275 274 273 276 276 274 273 273 274 275 278 278 277 279
266 265 265 265 264 264 264 265 265 265 264 263 264 264 265 264 265 265 265 270 272 274 274 275 274 274 276 278 279 279 280 281 282 278 274 272 273 273 274 274 277 276 278
Wind_Speed
5 7 8 8 8 7 8 8 8 6 5 3 3 1 2 2 3 3 5 5 5 5 5 4 5 4 6 4 6 3 5 7 7 3 2 4 6 9 8 6 7 10 10
7 7 9 9 10 9 8 8 7 7 5 3 2 2 3 2 2 2 4 5 5 5 5 5 5 6 5 7 8 6 4 4 6 3 1 3 2 5 7 6 7 9 7
11 10 11 11 8 9 9 8 7 7 5 5 4 3 4 3 2 1 2 3 5 5 5 6 5 5 4 4 4 5 6 4 3 6 2 3 1 2 3 6 6 7 6
7 7 10 9 11 8 7 7 7 7 5 6 4 5 4 4 3 3 2 2 4 5 5 5 5 5 3 5 4 4 4 3 4 3 4 3 1 2 3 2 3 4 5
8 9 11 10 6 7 7 6 7 6 5 5 5 4 3 2 2 3 5 3 3 5 5 5 5 5 4 4 5 5 5 3 2 3 2 3 2 2 1 3 1 3 2
6 6 6 8 7 6 6 6 7 5 5 5 5 6 7 6 5 3 4 2 2 2 4 4 4 4 4 4 4 3 4 3 3 2 3 2 1 1 1 2 2 2 1
7 6 6 6 7 8 6 6 7 5 4 5 4 5 6 6 7 5 4 4 2 0 2 2 3 3 2 3 3 3 3 3 2 2 1 1 0 0 0 0 2 1 2
10 10 7 6 6 5 5 5 6 5 5 4 4 4 5 4 3 4 3 3 3 2 2 2 3 3 3 3 3 2 2 2 2 3 2 1 1 1 0 1 1 3 2
11 12 12 10 7 7 3 3 5 4 4 4 4 4 4 5 5 5 4 3 2 2 2 1 2 2 3 2 3 2 3 2 2 2 2 2 2 2 2 1 2 3 1
11 12 11 11 9 10 6 4 1 3 3 3 3 2 2 3 4 4 4 4 3 1 2 0 0 1 1 1 2 1 2 2 1 1 1 1 2 2 2 1 1 1 3
9 8 10 9 10 11 11 9 9 8 6 4 3 3 2 2 3 3 3 3 3 1 1 0 1 2 2 2 2 2 3 2 2 2 2 3 2 2 2 2 1 2 2
8 9 9 10 11 11 10 8 8 9 8 7 6 6 5 4 3 2 2 1 3 2 1 1 2 3 3 3 3 3 3 4 5 5 4 5 2 2 2 2 3 3 2
9 8 9 9 9 7 7 6 7 7 5 5 5 5 5 5 4 2 2 3 2 1 3 3 3 4 4 4 5 4 5 5 5 5 5 5 5 4 3 3 3 2 2
7 8 8 6 6 6 6 8 8 8 7 6 5 4 3 4 5 3 3 5 3 2 3 4 4 4 4 4 5 5 5 5 5 5 5 5 5 5 5 4 4 4 3
7 7 7 5 5 5 6 6 7 7 7 6 5 4 3 3 4 3 3 3 2 3 4 5 4 4 4 5 5 6 6 6 6 5 5 5 7 12 10 4 5 5 4
8 7 5 4 5 5 7 7 7 6 5 5 5 5 5 5 4 4 4 3 3 3 4 4 4 5 5 12 15 13 7 8 8 7 6 6 11 11 17 17 16 11 6
6 5 5 5 4 5 5 5 5 4 4 5 5 5 5 5 5 5 4 4 4 4 5 5 5 6 6 14 17 18 8 7 8 8 8 7 5 10 5 12 18 15 16
5 5 4 5 3 3 4 4 5 4 4 4 4 4 5 5 5 5 5 5 4 5 5 5 6 6 6 15 18 19 10 7 7 7 7 7 7 7 8 7 8 8 6
5 4 3 2 3 3 3 4 4 4 4 5 5 5 5 5 5 5 5 5 5 5 5 6 6 6 6 15 18 17 9 9 7 7 7 8 8 13 17 11 10 10 8
5 4 5 4 4 5 5 3 3 4 4 5 6 6 6 6 6 6 6 4 4 7 6 8 7 10 8 14 19 17 8 8 7 7 8 18 14 19 20 12 11 9 9
5 5 5 3 4 5 5 5 3 4 4 7 7 7 6 6 7 6 4 4 6 7 6 8 6 7 9 10 20 21 11 9 9 9 8 8 19 21 22 22 12 12 10
4 3 3 4 4 4 2 5 5 5 6 6 8 8 7 7 8 7 6 7 6 6 6 6 7 7 8 15 17 21 21 19 11 11 9 9 20 21 21 18 22 24 19
5 4 3 4 5 6 4 5 7 8 6 6 8 8 8 8 9 9 8 5 5 4 6 7 7 7 8 7 19 20 21 21 14 8 11 20 24 23 20 22 23 21 9
5 3 2 5 8 6 7 6 8 7 6 8 8 7 5 9 6 5 6 7 4 5 7 7 8 8 8 8 8 9 9 15 13 14 10 12 14 10 12 15 13 5 4
4 3 5 7 7 6 7 7 9 6 7 8 7 6 8 7 7 7 6 7 7 9 9 9 9 9 9 10 16 14 9 9 13 13 6 6 7 7 6 4 5 4 4
4 6 6 8 8 7 8 8 6 6 7 8 7 6 6 5 7 6 7 15 19 22 23 24 19 10 19 25 24 25 24 24 23 12 10 8 8 8 7 7 5 7 10
Wind_Direction
204 163 164 154 143 152 154 160 152 161 140 137 132 142 117 80 41 40 38 41 43 41 48 54 49 34 55 33 18 3 29 23 359 17 39 49 51 52 41 39 36 31 33
163 163 156 161 168 164 167 164 167 163 167 148 167 139 143 110 106 59 41 44 50 41 54 55 49 37 42 33 25 24 10 21 14 32 351 20 352 47 50 32 38 35 28
178 172 172 175 162 173 175 171 168 166 164 158 114 83 83 77 91 31 43 25 53 50 60 58 58 50 48 54 41 29 39 11 353 28 56 31 17 323 66 37 42 27 30
159 170 170 172 183 181 163 156 155 161 160 154 146 161 167 161 186 149 123 68 60 67 61 62 53 60 52 45 28 33 43 52 27 340 11 24 348 356 339 105 71 58 30
161 175 184 182 158 147 161 154 151 154 150 157 173 171 151 129 128 124 125 108 68 59 57 63 55 45 43 39 44 32 29 40 66 37 351 358 332 22 323 314 37 70 45
127 128 124 127 134 137 145 151 153 157 153 148 153 167 168 157 143 150 147 150 105 69 55 63 69 58 45 33 21 23 42 37 51 38 39 50 12 333 360 330 342 300 327
82 101 122 136 139 151 152 152 154 155 144 136 138 159 163 166 168 168 165 165 154 140 89 89 72 58 43 40 27 25 27 21 39 20 2 4 317 265 233 139 278 297 306
51 52 58 91 104 119 143 147 156 144 152 146 138 142 151 154 155 160 159 165 165 175 169 135 98 70 53 34 26 15 349 18 11 357 358 315 328 358 160 186 158 323 309
45 47 42 34 69 100 110 153 159 152 162 162 151 153 155 156 159 150 142 149 142 155 150 103 62 53 54 42 41 19 341 357 349 331 338 332 325 351 317 269 189 167 278
57 51 48 45 51 53 46 39 111 159 159 156 164 161 138 122 126 128 139 152 157 121 129 130 79 358 22 26 18 346 324 306 284 225 309 332 311 329 332 285 260 214 192
66 57 55 51 41 48 46 33 33 33 33 32 31 69 73 102 119 127 141 142 121 129 204 249 318 310 318 323 324 301 284 271 272 277 249 266 280 292 311 302 277 247 184
71 63 58 56 54 42 37 38 41 43 35 38 47 41 34 17 10 8 42 117 151 110 354 330 315 302 294 277 272 282 300 279 265 258 252 257 252 264 278 284 268 252 234
80 66 58 44 51 48 39 33 45 40 25 30 34 29 18 356 324 319 300 144 80 349 298 298 290 295 287 285 276 265 273 271 265 258 245 248 241 252 240 252 262 251 252
87 88 77 57 49 46 37 29 26 24 21 19 17 11 1 356 347 64 8 300 267 261 274 274 274 270 269 263 263 260 260 263 260 250 240 243 239 243 246 248 250 248 246
85 68 67 55 53 45 31 32 24 9 359 353 357 354 332 312 315 253 243 255 271 255 256 266 264 269 268 262 248 247 244 244 249 250 248 244 247 256 246 227 235 228 229
88 72 59 49 43 34 28 19 16 8 357 348 345 341 345 332 330 316 307 294 277 274 277 274 275 277 276 277 277 279 263 247 229 239 246 243 263 272 273 263 249 217 215
97 85 67 41 30 23 12 4 358 358 9 354 355 353 345 344 342 330 318 307 284 274 264 259 259 261 267 280 280 280 276 257 238 232 240 243 241 259 249 267 269 268 262
75 76 51 25 26 22 13 339 341 348 348 351 338 332 335 328 327 322 311 307 288 279 273 267 264 262 262 282 283 277 271 266 239 232 227 227 236 241 255 253 254 250 251
57 53 38 355 359 357 341 341 346 345 344 342 331 315 318 315 310 302 303 296 289 281 268 269 257 257 256 281 285 283 282 271 254 232 227 225 230 244 260 254 237 239 244
20 22 4 359 6 340 341 346 333 354 346 332 314 310 307 300 288 289 288 275 275 284 279 280 265 258 267 277 285 283 273 265 260 241 234 251 236 238 252 245 245 225 229
6 17 357 328 306 329 340 326 334 325 307 313 304 300 292 292 279 278 273 279 279 281 276 277 271 264 264 267 280 277 267 254 257 251 241 233 251 258 259 256 229 222 221
340 337 307 306 295 304 300 301 302 305 311 302 305 298 298 299 307 302 293 283 277 277 277 279 282 271 260 272 277 276 270 263 252 252 250 247 251 254 256 257 249 232 231
321 297 283 296 296 308 294 303 305 305 293 301 298 291 289 298 304 298 291 289 287 278 282 282 284 279 273 263 274 277 277 274 270 252 252 257 251 250 255 257 248 244 225
303 261 296 313 300 288 297 281 288 297 298 294 288 283 283 295 297 306 292 287 267 273 278 276 274 272 270 266 261 258 265 275 280 280 280 270 267 286 265 244 250 237 203
296 301 294 285 278 279 273 275 293 292 285 287 283 284 289 285 284 279 279 275 270 263 263 256 253 256 256 253 259 251 237 239 243 245 241 243 246 251 249 265 217 161 174
281 284 276 281 286 286 286 288 285 280 277 283 288 284 289 286 279 282 287 285 291 294 292 290 286 277 284 287 283 280 281 279 264 238 222 226 224 227 227 223 238 187 183